This is the latest recevied weather packets stored in our database for station/object F5IOR-13. If no packets are shown the sender has not sent any weather packets the latest 10 day(s).
| Time | Temp. | Humidity | Pressure | Rain* | Wind** | Luminosity | Snow |
|---|---|---|---|---|---|---|---|
| 1777631909 | 21.67° C | 55% | 994.9 hPa | 0 mm | - | - | - |
| 1777630109 | 20.56° C | 60% | 995.1 hPa | 0 mm | - | - | - |
| 1777628309 | 20° C | 61% | 995.1 hPa | 0 mm | - | - | - |
| 1777627350 | 18.89° C | 65% | 994.9 hPa | 0 mm | - | - | - |
| 1777626389 | 18.89° C | 67% | 994.9 hPa | 0 mm | - | - | - |
| 1777625429 | 17.78° C | 71% | 994.8 hPa | 0 mm | - | - | - |
| 1777624469 | 16.67° C | 77% | 994.6 hPa | 0 mm | - | - | - |
| 1777623989 | 16.67° C | 77% | 994.6 hPa | 0 mm | - | - | - |
| 1777623510 | 16.67° C | 77% | 994.6 hPa | 0 mm | - | - | - |
| 1777623029 | 16.11° C | 78% | 994.4 hPa | 0 mm | - | - | - |
| 1777622549 | 16.11° C | 78% | 994.4 hPa | 0 mm | - | - | - |
| 1777622309 | 15.56° C | 81% | 994.3 hPa | 0 mm | - | - | - |
| 1777622069 | 15.56° C | 81% | 994.3 hPa | 0 mm | - | - | - |
| 1777621829 | 15.56° C | 81% | 994.3 hPa | 0 mm | - | - | - |
| 1777621589 | 15.56° C | 81% | 994.3 hPa | 0 mm | - | - | - |
| 1777621469 | 15.56° C | 81% | 994.3 hPa | 0 mm | - | - | - |
| 1777621349 | 15.56° C | 81% | 994.3 hPa | 0 mm | - | - | - |
| 1777621229 | 15.56° C | 81% | 994.3 hPa | 0 mm | - | - | - |
| 1777621109 | 15.56° C | 81% | 994.3 hPa | 0 mm | - | - | - |
| 1777621049 | 15.56° C | 81% | 994.3 hPa | 0 mm | - | - | - |
| 1777620989 | 15.56° C | 81% | 994.3 hPa | 0 mm | - | - | - |
| 1777620929 | 15.56° C | 81% | 994.3 hPa | 0 mm | - | - | - |
| 1777576106 | 17.78° C | 75% | 989.7 hPa | 1.52 mm | - | - | - |
| 1777574306 | 18.89° C | 76% | 989.4 hPa | 1.52 mm | - | - | - |
| 1777572506 | 19.44° C | 73% | 989.2 hPa | 1.52 mm | - | - | - |
* Rain latest hour (hover to see other rain measurements)
** Current wind speed in m/s (hover to see current wind gust speed)